sat.trackr.live / text

‹ back to catalog

ICEYE-X53

NORAD 64584 · 2025-135BJ

PAYLOAD ACTIVE UNKNOWN

§ Identity

Operator
Country
FIN
Launch date
2025-06-23
Launch site
AFWTR
Launch vehicle
Mass (kg)
RCS (m²)

External: N2YO · Heavens-Above · Gunter

§ Orbital elements

Epoch: 2026-05-25T03:46:12.041184Z

Period
95.94 min
Inclination
97.7396°
Eccentricity
0.0001715
Mean motion
15.00909657 rev/d
Perigee alt
562.9 km
Apogee alt
565.3 km
Semi-major
6,942.2 km
B*
2.5031e-4
RAAN
262.0378°
Arg perigee
136.4045°
Mean anomaly
223.7315°
Rev number
5,062

§ Raw data

ICEYE-X531 64584U 25135BJ  26145.15708381  .00003127  00000+0  25031-3 0  99902 64584  97.7396 262.0378 0001715 136.4045 223.7315 15.00909657 50623

JSON: /api/v1/satellites/64584 · /tle

For live sub-satellite position, see the globe view (requires WebGL).

§ Visibility from observer

Set your observer location to see the next 7 days of passes ≥ 10°. The values pass through the URL so the page stays shareable.

No JS? Fill the form by hand. The geolocation button needs JavaScript.

§ Radio — SatNOGS DB

ModeDescriptionDownlinkUplink
FM S-band telemetry 2.265 GHz

1 transmitter · refreshed weekly from db.satnogs.org